Racine, WI

7:05 AM CDT on April 30, 2017 (GMT -0500)
Batten

Weather History for KRAC - December, 2012

Change the Weather History Date:

Saturday, December 8, 2012

  Actual Average Record
Temperature  
Mean Temperature 35 °F -  
Max Temperature 37 °F 35 °F 57 °F (1966)
Min Temperature 33 °F 22 °F 0 °F (1958)
Degree Days  
Heating Degree Days 30    
Moisture  
Dew Point 33 °F    
Average Humidity 89    
Maximum Humidity 100    
Minimum Humidity 73    
Precipitation  
Precipitation 0.32 in - - ()
Sea Level Pressure  
Sea Level Pressure 30.03 in    
Wind  
Wind Speed 11 mph (NNE)    
Max Wind Speed 17 mph    
Max Gust Speed 23 mph    
Visibility 7 miles    
Events Rain , Snow    
Averages and records for this station are not official NWS values.
T = Trace of Precipitation, MM = Missing Value Source: NWS Daily Summary

Daily Weather History Graph

Daily Weather History Graph

Search for Another Location

Airport or City:

Trip Planner

Search our weather history database for the weather conditions in past years. The results will help you decide how hot, cold, wet, or windy it might be!

Date:

Astronomy

Dec. 08, 2012 Rise Set
Actual Time 7:09 AM CST 4:17 PM CST
Civil Twilight 6:37 AM CST 4:49 PM CST
Nautical Twilight 6:01 AM CST 5:24 PM CST
Astronomical Twilight 5:27 AM CST 5:59 PM CST
Moon 1:27 AM CST (12/8) 12:52 PM CST (12/8)
Length of Visible Light 10h 11m
Length of Day
9h 07m
Waning Crescent, 28% of the Moon is Illuminated
Dec 8
Waning Crescent
Dec 13
New
Dec 19
First Quarter
Dec 28
Full
Jan 4
Last Quarter

Hourly Weather History & Observations

Time (CST) Temp. Windchill Dew Point Humidity Pressure Visibility Wind Dir Wind Speed Gust Speed Precip Events Conditions
12:09 AM 37.4 °F 30.3 °F 35.6 °F 93% 29.92 in 9.0 mi North 10.4 mph - 0.00 in Rain Light Rain
12:48 AM 37.4 °F 28.9 °F 33.8 °F 87% 29.91 in 8.0 mi North 13.8 mph 20.7 mph 0.00 in Rain Light Rain
12:53 AM 37.0 °F 28.9 °F 33.1 °F 86% 29.93 in 7.0 mi North 12.7 mph - 0.00 in Rain Light Rain
1:53 AM 37.0 °F 28.9 °F 35.1 °F 93% 29.92 in 6.0 mi North 12.7 mph - 0.05 in Rain Light Rain
2:10 AM 37.4 °F 30.3 °F 35.6 °F 93% 29.90 in 7.0 mi North 10.4 mph - 0.00 in Rain Light Rain
2:53 AM 36.0 °F 27.5 °F 34.0 °F 93% 29.93 in 5.0 mi North 12.7 mph 18.4 mph 0.05 in Rain Light Rain
3:20 AM 37.4 °F 29.3 °F 35.6 °F 93% 29.91 in 6.0 mi North 12.7 mph 18.4 mph 0.03 in Rain Light Rain
3:40 AM 37.4 °F 30.3 °F 35.6 °F 93% 29.91 in 7.0 mi NNE 10.4 mph - 0.04 in Rain Light Rain
3:50 AM 37.4 °F 31.4 °F 35.6 °F 93% 29.92 in 8.0 mi North 8.1 mph - 0.04 in Rain Light Rain
3:53 AM 37.0 °F 29.3 °F 35.1 °F 93% 29.94 in 9.0 mi North 11.5 mph - 0.04 in Rain Light Rain
4:05 AM 37.4 °F 31.4 °F 35.6 °F 93% 29.92 in 5.0 mi North 8.1 mph - 0.02 in Rain Light Rain
4:53 AM 37.0 °F 28.9 °F 34.0 °F 89% 29.93 in 10.0 mi NNE 12.7 mph - 0.06 in Rain Light Rain
5:32 AM 35.6 °F 29.2 °F 33.8 °F 93% 29.93 in 9.0 mi NNW 8.1 mph - 0.00 in Rain Light Rain
5:53 AM 34.0 °F 28.0 °F 33.1 °F 96% 29.95 in 6.0 mi NNW 6.9 mph - 0.00 in   Overcast
6:18 AM 35.6 °F 31.7 °F 33.8 °F 93% 29.94 in 7.0 mi NW 4.6 mph - N/A   Overcast
6:53 AM 35.1 °F 32.2 °F 34.0 °F 96% 29.97 in 7.0 mi NW 3.5 mph - N/A   Overcast
7:48 AM 35.6 °F 29.9 °F 33.8 °F 93% 29.97 in 5.0 mi NNW 6.9 mph - 0.00 in Rain Light Rain
7:53 AM 35.1 °F 30.1 °F 34.0 °F 96% 29.99 in 5.0 mi NNW 5.8 mph - 0.00 in Rain Light Rain
8:05 AM 35.6 °F 31.7 °F 33.8 °F 93% 29.97 in 6.0 mi NNW 4.6 mph - 0.00 in   Overcast
8:31 AM 37.4 °F 29.3 °F 33.8 °F 87% 29.98 in 10.0 mi NE 12.7 mph - 0.00 in   Overcast
8:53 AM 37.9 °F 30.0 °F 34.0 °F 86% 30.01 in 10.0 mi NE 12.7 mph - 0.00 in   Overcast
9:40 AM 35.6 °F 28.6 °F 33.8 °F 93% 30.01 in 8.0 mi North 9.2 mph 17.3 mph N/A   Overcast
9:53 AM 36.0 °F 27.1 °F 34.0 °F 93% 30.03 in 4.0 mi North 13.8 mph 19.6 mph 0.00 in Rain Light Rain
10:22 AM 35.6 °F 28.0 °F 33.8 °F 93% 30.03 in 4.0 mi North 10.4 mph - 0.02 in Rain Light Rain
10:33 AM 33.8 °F 27.7 °F 33.8 °F 100% 30.03 in 1.8 mi North 6.9 mph - 0.04 in Rain Rain
10:42 AM 35.6 °F 27.1 °F 33.8 °F 93% 30.03 in 2.5 mi North 12.7 mph 18.4 mph 0.05 in Rain Light Rain
10:50 AM 35.6 °F 26.2 °F 33.8 °F 93% 30.03 in 4.0 mi North 15.0 mph - 0.05 in Rain Light Rain
10:53 AM 35.1 °F 25.5 °F 34.0 °F 96% 30.05 in 4.0 mi North 15.0 mph - 0.05 in Rain Light Rain
11:09 AM 35.6 °F 28.6 °F 33.8 °F 93% 30.03 in 6.0 mi North 9.2 mph - 0.00 in   Overcast
11:19 AM 37.4 °F 29.3 °F 35.6 °F 93% 30.03 in 5.0 mi North 12.7 mph - 0.00 in Rain Light Rain
11:45 AM 37.4 °F 30.8 °F 35.6 °F 93% 30.02 in 7.0 mi North 9.2 mph - 0.00 in Rain Light Rain
11:53 AM 37.0 °F 29.3 °F 35.1 °F 93% 30.05 in 9.0 mi North 11.5 mph - 0.00 in   Overcast
12:19 PM 35.6 °F 29.2 °F 33.8 °F 93% 30.03 in 4.0 mi North 8.1 mph - 0.00 in Rain Light Rain
12:26 PM 33.8 °F 25.8 °F 33.8 °F 100% 30.03 in 1.8 mi NE 10.4 mph - 0.02 in Rain Rain
12:44 PM 35.6 °F 29.2 °F 33.8 °F 93% 30.03 in 3.0 mi NE 8.1 mph - 0.04 in Rain Light Rain
12:53 PM 36.0 °F 30.3 °F 34.0 °F 93% 30.05 in 10.0 mi NE 6.9 mph - 0.04 in Rain Light Rain
1:13 PM 37.4 °F 30.8 °F 33.8 °F 87% 30.03 in 7.0 mi NE 9.2 mph - 0.00 in Rain Light Rain
1:37 PM 37.4 °F 29.3 °F 33.8 °F 87% 30.03 in 10.0 mi NNE 12.7 mph - 0.00 in   Overcast
1:45 PM 37.4 °F 30.8 °F 33.8 °F 87% 30.03 in 10.0 mi NNE 9.2 mph - 0.00 in   Overcast
1:53 PM 37.0 °F 28.5 °F 33.1 °F 86% 30.05 in 10.0 mi NNE 13.8 mph - 0.00 in   Overcast
2:09 PM 37.4 °F 29.8 °F 33.8 °F 87% 30.04 in 10.0 mi NNE 11.5 mph - N/A   Mostly Cloudy
2:50 PM 35.6 °F 28.0 °F 33.8 °F 93% 30.06 in 9.0 mi NE 10.4 mph - 0.00 in   Mostly Cloudy
2:53 PM 36.0 °F 29.6 °F 33.1 °F 89% 30.08 in 9.0 mi NE 8.1 mph - 0.00 in   Mostly Cloudy
3:53 PM 35.1 °F 27.9 °F 33.1 °F 92% 30.11 in 5.0 mi NNE 9.2 mph - 0.00 in Rain Light Rain
4:01 PM 35.6 °F 29.2 °F 33.8 °F 93% 30.09 in 5.0 mi NNE 8.1 mph - 0.01 in Snow Light Snow
4:53 PM 34.0 °F 26.0 °F 33.1 °F 96% 30.12 in 6.0 mi North 10.4 mph - 0.01 in Snow Light Snow
5:20 PM 33.8 °F 30.8 °F 32.0 °F 93% 30.10 in 6.0 mi NNE 3.5 mph - 0.02 in Snow Light Snow
5:37 PM 33.8 °F - 32.0 °F 93% 30.10 in 10.0 mi Calm Calm - 0.02 in   Mostly Cloudy
5:53 PM 35.1 °F 26.9 °F 32.0 °F 89% 30.13 in 10.0 mi NE 11.5 mph - 0.02 in   Mostly Cloudy
6:53 PM 36.0 °F 27.1 °F 32.0 °F 86% 30.13 in 10.0 mi NE 13.8 mph - N/A   Overcast
7:25 PM 35.6 °F 29.2 °F 32.0 °F 87% 30.11 in 10.0 mi ENE 8.1 mph - N/A   Overcast
7:53 PM 37.0 °F 29.8 °F 30.9 °F 79% 30.13 in 10.0 mi East 10.4 mph - N/A   Overcast
8:21 PM 37.4 °F 29.8 °F 30.2 °F 75% 30.11 in 10.0 mi East 11.5 mph - N/A   Overcast
8:53 PM 37.0 °F 29.3 °F 30.0 °F 76% 30.14 in 10.0 mi East 11.5 mph - N/A   Mostly Cloudy
9:29 PM 37.4 °F 28.5 °F 30.2 °F 75% 30.13 in 10.0 mi East 15.0 mph - 0.00 in Rain Light Rain
9:53 PM 37.9 °F 29.2 °F 30.9 °F 76% 30.14 in 10.0 mi ESE 15.0 mph - 0.00 in   Overcast
10:23 PM 37.4 °F 27.8 °F 30.2 °F 75% 30.13 in 10.0 mi ESE 17.3 mph 23.0 mph N/A   Overcast
10:33 PM 37.4 °F 28.9 °F 30.2 °F 75% 30.12 in 10.0 mi ESE 13.8 mph - N/A   Overcast
10:53 PM 37.0 °F 28.5 °F 30.0 °F 76% 30.14 in 10.0 mi ESE 13.8 mph - N/A   Overcast
11:53 PM 37.0 °F 28.9 °F 28.9 °F 73% 30.14 in 10.0 mi ESE 12.7 mph - N/A   Mostly Cloudy